NSZ3302 EKCH-EDDB

Flight info

Callsign NSZ3302
Flight time 0h 41m
Altitude 29000
Route SALLO M44 KOGIM M725 RODEP T280 KETAP KETAP1L
Aircraft B38M/M-SDE1FGHILORVWXY/HB1

Departure

Time 2026-05-04 09:01
Airport Copenhagen Kastrup Airport (EKCH)

Arrival

Time 2026-05-04 09:42
Airport Berlin Brandenburg Airport (EDDB)
Time Latitude Longitude Altitude Speed Heading
2026-05-04 08:19 55.62701 12.65395 19 ft 0 kts 26°
2026-05-04 08:24 55.62700 12.65395 19 ft 0 kts 26°
2026-05-04 08:40 55.62700 12.65394 19 ft 0 kts 26°
2026-05-04 08:46 55.62699 12.65394 19 ft 0 kts 26°
2026-05-04 08:50 55.62684 12.65381 19 ft 4 kts 27°
2026-05-04 08:50 55.62660 12.65359 24 ft 4 kts 26°
2026-05-04 08:51 55.62636 12.65338 23 ft 4 kts 24°
2026-05-04 08:51 55.62617 12.65324 22 ft 4 kts 13°
2026-05-04 08:51 55.62592 12.65322 23 ft 2 kts 359°
2026-05-04 08:51 55.62590 12.65322 23 ft 0 kts 359°
2026-05-04 08:54 55.62508 12.65198 19 ft 15 kts 179°
2026-05-04 08:55 55.62395 12.65205 19 ft 17 kts 179°
2026-05-04 08:55 55.62280 12.65153 21 ft 19 kts 239°
2026-05-04 08:55 55.62322 12.64952 19 ft 16 kts 302°
2026-05-04 08:55 55.62340 12.64775 21 ft 16 kts 249°
2026-05-04 08:57 55.61566 12.63981 21 ft 26 kts 221°
2026-05-04 09:01 55.44137 12.62818 8266 ft 298 kts 144°
2026-05-04 09:01 55.42539 12.65167 9086 ft 301 kts 144°
2026-05-04 09:01 55.40923 12.67539 9869 ft 304 kts 145°
2026-05-04 09:01 55.39272 12.69954 10373 ft 317 kts 145°
2026-05-04 09:02 55.37541 12.72474 10832 ft 331 kts 145°
2026-05-04 09:02 55.35735 12.75101 11436 ft 340 kts 145°
2026-05-04 09:02 55.33911 12.77762 12264 ft 342 kts 145°
2026-05-04 09:02 55.32068 12.80449 13071 ft 346 kts 145°
2026-05-04 09:03 55.30201 12.83168 13878 ft 350 kts 146°
2026-05-04 09:03 55.28321 12.85905 14627 ft 354 kts 146°
2026-05-04 09:03 55.26414 12.88678 15388 ft 358 kts 146°
2026-05-04 09:03 55.24490 12.91472 16162 ft 361 kts 146°
2026-05-04 09:04 55.22546 12.94293 16914 ft 365 kts 147°
2026-05-04 09:04 55.20582 12.97138 17651 ft 369 kts 147°
2026-05-04 09:04 55.18603 13.00001 18354 ft 372 kts 147°
2026-05-04 09:04 55.16594 13.02904 18986 ft 376 kts 147°
2026-05-04 09:05 55.14573 13.05821 19628 ft 378 kts 147°
2026-05-04 09:05 55.12535 13.08758 20258 ft 381 kts 147°
2026-05-04 09:05 55.10484 13.11710 20881 ft 384 kts 147°
2026-05-04 09:05 55.08416 13.14682 21498 ft 386 kts 148°
2026-05-04 09:06 55.06335 13.17669 22089 ft 389 kts 148°
2026-05-04 09:07 54.91075 13.38205 25512 ft 390 kts 171°
2026-05-04 09:08 54.88451 13.39217 25865 ft 387 kts 177°
2026-05-04 09:08 54.85792 13.40064 26268 ft 390 kts 178°
2026-05-04 09:08 54.83142 13.40847 26710 ft 392 kts 179°
2026-05-04 09:08 54.80445 13.41612 27119 ft 395 kts 179°
2026-05-04 09:09 54.77719 13.42361 27500 ft 397 kts 179°
2026-05-04 09:09 54.74995 13.43099 27959 ft 399 kts 180°
2026-05-04 09:09 54.72251 13.43836 28457 ft 399 kts 180°
2026-05-04 09:09 54.69508 13.44572 28885 ft 401 kts 180°
2026-05-04 09:10 54.66755 13.45310 28949 ft 399 kts 180°
2026-05-04 09:10 54.61289 13.46771 28937 ft 397 kts 180°
2026-05-04 09:11 54.55831 13.48224 28937 ft 397 kts 180°
2026-05-04 09:11 54.50378 13.49662 28891 ft 397 kts 181°
2026-05-04 09:12 54.44886 13.51053 28930 ft 401 kts 181°
2026-05-04 09:14 54.22774 13.56734 28903 ft 403 kts 180°
2026-05-04 09:14 54.17252 13.58173 28738 ft 393 kts 180°
2026-05-04 09:14 54.14591 13.58864 28465 ft 384 kts 180°
2026-05-04 09:15 54.11953 13.59547 28038 ft 381 kts 180°
2026-05-04 09:15 54.09342 13.60223 27641 ft 377 kts 180°
2026-05-04 09:15 54.06761 13.60890 27243 ft 374 kts 180°
2026-05-04 09:15 54.04205 13.61550 26849 ft 370 kts 180°
2026-05-04 09:17 53.84523 13.67483 23871 ft 350 kts 176°
2026-05-04 09:18 53.82146 13.68325 23511 ft 348 kts 176°
2026-05-04 09:18 53.79783 13.69160 23099 ft 345 kts 176°
2026-05-04 09:18 53.77445 13.69985 22709 ft 342 kts 176°
2026-05-04 09:18 53.75137 13.70809 22334 ft 339 kts 176°
2026-05-04 09:19 53.72833 13.71633 21975 ft 336 kts 176°
2026-05-04 09:19 53.70560 13.72445 21625 ft 332 kts 175°
2026-05-04 09:19 53.68308 13.73061 21244 ft 322 kts 186°
2026-05-04 09:19 53.66102 13.72858 20928 ft 315 kts 190°
2026-05-04 09:20 53.63959 13.72652 20659 ft 310 kts 190°
2026-05-04 09:20 53.61813 13.72439 20350 ft 307 kts 190°
2026-05-04 09:20 53.59694 13.72225 20042 ft 304 kts 190°
2026-05-04 09:20 53.57591 13.72011 19735 ft 301 kts 190°
2026-05-04 09:21 53.55514 13.71800 19420 ft 298 kts 190°
2026-05-04 09:21 53.53454 13.71590 19127 ft 297 kts 190°
2026-05-04 09:21 53.51383 13.71379 18815 ft 302 kts 189°
2026-05-04 09:21 53.49274 13.71165 18502 ft 306 kts 189°
2026-05-04 09:22 53.47151 13.70949 18185 ft 306 kts 189°
2026-05-04 09:22 53.45030 13.70734 17818 ft 304 kts 189°
2026-05-04 09:22 53.42931 13.70522 17503 ft 300 kts 189°
2026-05-04 09:22 53.40844 13.70617 17188 ft 304 kts 175°
2026-05-04 09:23 53.38809 13.71406 17142 ft 291 kts 178°
2026-05-04 09:23 53.36831 13.71791 17094 ft 288 kts 180°
2026-05-04 09:23 53.34790 13.72201 16995 ft 300 kts 179°
2026-05-04 09:23 53.32698 13.72664 16926 ft 306 kts 179°
2026-05-04 09:25 53.18632 13.76039 15640 ft 302 kts 178°
2026-05-04 09:25 53.16563 13.76541 15330 ft 300 kts 178°
2026-05-04 09:26 53.14511 13.77039 15021 ft 297 kts 178°
2026-05-04 09:26 53.12470 13.77533 14716 ft 295 kts 178°
2026-05-04 09:26 53.10445 13.78023 14402 ft 294 kts 178°
2026-05-04 09:26 53.08425 13.78512 14084 ft 292 kts 178°
2026-05-04 09:27 53.06421 13.78996 13779 ft 290 kts 178°
2026-05-04 09:27 53.04428 13.79477 13436 ft 289 kts 178°
2026-05-04 09:27 53.02454 13.79954 13102 ft 287 kts 178°
2026-05-04 09:27 53.00484 13.80429 12798 ft 285 kts 178°
2026-05-04 09:28 52.98533 13.80899 12497 ft 282 kts 178°
2026-05-04 09:28 52.96595 13.81366 12200 ft 280 kts 177°
2026-05-04 09:28 52.94670 13.81828 11899 ft 279 kts 177°
2026-05-04 09:28 52.92757 13.82288 11590 ft 277 kts 177°
2026-05-04 09:29 52.90859 13.82743 11301 ft 274 kts 177°
2026-05-04 09:29 52.88978 13.83193 11024 ft 272 kts 177°
2026-05-04 09:29 52.87116 13.83639 10737 ft 270 kts 177°
2026-05-04 09:29 52.85268 13.84081 10447 ft 267 kts 176°
2026-05-04 09:30 52.83427 13.84521 10183 ft 268 kts 176°
2026-05-04 09:30 52.81575 13.84963 10033 ft 270 kts 176°
2026-05-04 09:30 52.79716 13.85407 9761 ft 271 kts 176°
2026-05-04 09:30 52.77851 13.85851 9432 ft 271 kts 176°
2026-05-04 09:31 52.76001 13.86292 9115 ft 269 kts 176°
2026-05-04 09:31 52.74156 13.86732 8814 ft 266 kts 176°
2026-05-04 09:31 52.72334 13.87165 8532 ft 263 kts 176°
2026-05-04 09:31 52.70529 13.87594 8252 ft 261 kts 176°
2026-05-04 09:32 52.68739 13.88019 7981 ft 259 kts 176°
2026-05-04 09:32 52.66962 13.88440 7683 ft 257 kts 177°
2026-05-04 09:34 52.54864 13.91302 5853 ft 241 kts 176°
2026-05-04 09:34 52.53236 13.91685 5744 ft 233 kts 176°
2026-05-04 09:34 52.51669 13.92056 5670 ft 225 kts 176°
2026-05-04 09:34 52.50122 13.92419 5405 ft 225 kts 176°
2026-05-04 09:35 52.48589 13.92438 5151 ft 217 kts 200°
2026-05-04 09:35 52.47334 13.91234 4876 ft 209 kts 229°
2026-05-04 09:35 52.46543 13.89261 4560 ft 207 kts 244°
2026-05-04 09:35 52.45942 13.87116 4304 ft 205 kts 247°
2026-05-04 09:37 52.42652 13.73356 2795 ft 171 kts 250°
2026-05-04 09:37 52.42226 13.71554 2563 ft 167 kts 250°
2026-05-04 09:38 52.41813 13.69804 2350 ft 165 kts 249°
2026-05-04 09:38 52.41397 13.68048 2132 ft 165 kts 249°
2026-05-04 09:38 52.40985 13.66303 1934 ft 162 kts 249°
2026-05-04 09:38 52.40583 13.64612 1709 ft 155 kts 249°
2026-05-04 09:39 52.40220 13.63071 1565 ft 136 kts 249°
2026-05-04 09:39 52.39882 13.61644 1375 ft 134 kts 250°
2026-05-04 09:39 52.39545 13.60223 1152 ft 134 kts 250°
2026-05-04 09:39 52.39214 13.58806 1003 ft 131 kts 250°
2026-05-04 09:40 52.38880 13.57419 822 ft 137 kts 248°
2026-05-04 09:40 52.38528 13.55963 656 ft 135 kts 249°
2026-05-04 09:40 52.38191 13.54526 450 ft 135 kts 251°
2026-05-04 09:40 52.37862 13.53135 252 ft 128 kts 250°
2026-05-04 09:41 52.37551 13.51811 163 ft 117 kts 249°
2026-05-04 09:42 52.36836 13.50591 158 ft 20 kts 68°
2026-05-04 09:43 52.36866 13.50747 158 ft 9 kts 108°
2026-05-04 09:43 52.36822 13.50788 157 ft 6 kts 159°
2026-05-04 09:43 52.36804 13.50799 158 ft 0 kts 159°
2026-05-04 09:43 52.36803 13.50800 158 ft 0 kts 159°